TEMELIN Weather Reports


Display with metric or nautical units.
time (UTC)temp
F
wind
direction
speed
MPH
gust
MPH
rain 1hr
in
rain 24hr
in
rain mn
in
humidity
%
barometer
mb
20260509231817 48 50 5.0 0.0 0.00 0.00 0.00 76
20260509222121 48 60 9.0 0.0 0.00 0.00 0.00 81
20260509211819 50 60 12.0 0.0 0.00 0.00 0.00 76
20260509201818 54 60 12.0 0.0 0.00 0.00 0.00 66
20260509191919 55 60 12.0 0.0 0.00 0.00 0.00 66
20260509181819 59 60 9.0 0.0 0.00 0.00 0.00 58
20260509171819 61 40 12.0 0.0 0.00 0.00 0.00 55
20260509162119 64 50 12.0 0.0 0.00 0.00 0.00 48
20260509151818 63 40 7.0 0.0 0.00 0.00 0.00 48
20260509141819 63 60 9.0 0.0 0.00 0.00 0.00 48
20260509131918 64 50 5.0 0.0 0.00 0.00 0.00 48
20260509121820 61 50 5.0 0.0 0.00 0.00 0.00 51
20260509111817 61 30 7.0 0.0 0.00 0.00 0.00 59
20260509102030 59 60 5.0 0.0 0.00 0.00 0.00 62
20260509091820 57 100 5.0 0.0 0.00 0.00 0.00 67
20260509081820 54 220 2.0 0.0 0.00 0.00 0.00 71
20260509071917 50 170 5.0 0.0 0.00 0.00 0.00 81
20260509061820 50 220 2.0 0.0 0.00 0.00 0.00 87
20260509051817 48 60 5.0 0.0 0.00 0.00 0.00 93
20260509042031 46 40 5.0 0.0 0.00 0.00 0.00 93
20260509031818 45 40 7.0 0.0 0.00 0.00 0.00 99
20260509021818 46 20 5.0 0.0 0.00 0.00 0.00 93
20260509011920 46 40 5.0 0.0 0.00 0.00 0.00 87
20260509001818 48 40 7.0 0.0 0.00 0.00 0.00 87